Location: Kelowna
(49.8880°N, 119.4960°W)
Time: 15:38:34
(UTC-07:00)

TIGRISAT - Pass Details

Date: 30 April 2024
Orbit: 594 x 672 km, 97.7° (Epoch: 27 May)

Event Time Altitude Azimuth Distance (km) Brightness Sun altitude
Rises 03:37:50 0° 128° (SE) 2,885 ? -15.9°
Reaches altitude 10° 03:40:24 10° 113° (ESE) 1,971 ? -15.6°
Maximum altitude 03:43:41 22° 63° (ENE) 1,343 ? -15.3°
Drops below altitude 10° 03:46:56 10° 12° (NNE) 1,956 ? -14.9°
Sets 03:49:28 0° 358° (N) 2,856 ? -14.7°
